Regional Weather Roundup
Issued by NWS

Home | Current Version | Previous Version | Text Only | Print | Product List | Glossary On
Versions: 1 2 3 4 5 6 7 8 9 10 11 12 13 14 15 16 17 18 19 20 21 22 23 24 25 26 27 28 29 30 31 32 33 34 35 36 37 38 39 40 41 42 43 44 45 46 47 48 49 50
000
ASUS43 KTOP 042108
RWRKS

WEATHER ROUNDUP FOR KANSAS
NATIONAL WEATHER SERVICE GOODLAND KS
300 PM CST SUN DEC 04 2016

NOTE:  "FAIR" INDICATES FEW OR NO CLOUDS BELOW 12,000 FEET WITH NO
SIGNIFICANT WEATHER AND/OR OBSTRUCTIONS TO VISIBILITY.

KSZ001>006-013>018-027>032-041>047-042200-
NORTHWEST KANSAS

CITY           SKY/WX    TMP DP  RH WIND       PRES   REMARKS
GOODLAND       SUNNY     50   8  18 SW14      29.90F
HAYS           SUNNY     51  27  39 NW10      29.96F
HILL CITY      SUNNY     52  19  27 W8        29.93F
RUSSELL        SUNNY     50  26  39 W9        29.95F
$$

KSZ061>065-074>080-084>089-042200-
SOUTHWEST KANSAS

CITY           SKY/WX    TMP DP  RH WIND       PRES   REMARKS
DODGE CITY     SUNNY     51  22  31 NW8       30.00S
ELKHART          N/A     50  19  29 S8          N/A
GARDEN CITY    SUNNY     49  16  26 SW6       29.97F
GREAT BEND     SUNNY     51  28  41 W10       29.98S
LIBERAL        SUNNY     48  27  43 SW7       30.03F
PRATT          SUNNY     49  27  42 W8        30.00S
$$

KSZ066>073-081>083-090>101-042200-
SOUTHEAST KANSAS

CITY           SKY/WX    TMP DP  RH WIND       PRES   REMARKS
CHANUTE        PTSUNNY   49  38  65 W8        30.03R
COFFEYVILLE    SUNNY     51  39  63 NW3       30.04R
HUTCHINSON     SUNNY     51  32  48 NW6       29.99F
MEDICINE LODGE   N/A     55  23  28 NW7       30.00F
NEWTON         SUNNY     50  37  61 W8        30.00S
PARSONS        MOSUNNY   49  38  65 CALM      30.04R
WICHITA INTL   MOSUNNY   51  37  58 SW6       30.01S
WICHITA JABRA  SUNNY     50  36  58 SW7       30.00F
WICHITA MCCONL SUNNY     50  37  60 VRB6      30.01S
WINFIELD       SUNNY     47  38  71 NW6       30.04S
$$

KSZ007>012-019>026-033>040-048>060-102>105-042200-
NORTHEAST KANSAS

CITY           SKY/WX    TMP DP  RH WIND       PRES   REMARKS
CONCORDIA      SUNNY     47  33  58 W9        29.95S
EMPORIA        SUNNY     44  36  73 W5        30.00S
LAWRENCE       CLOUDY    41  37  86 SW10      30.00R
MANHATTAN      SUNNY     44  37  76 SW8       29.98S
MARYSVILLE     SUNNY     45  37  76 SW9       29.94S
OLATHE IND     PTSUNNY   42  37  82 W7        29.99S
OLATHE EXE     MOSUNNY   42  35  76 W8        29.98R
SALINA         SUNNY     52  33  48 W5        29.98F
TOPEKA BILLARD CLOUDY    39  34  82 SW8       29.99S
TOPEKA FORBES  CLOUDY    40  35  83 W7        29.99S
$$



USA.gov is the U.S. government's official web portal to all federal, state and local government web resources and services.